Chillicothe, MO

2:48 AM CDT on June 24, 2017 (GMT -0500)
Chillicothe

Weather History for KCDJ - December, 2013

Change the Weather History Date:

Tuesday, December 3, 2013

  Actual Average (KIRK) Record (KIRK)
Temperature  
Mean Temperature 44 °F -  
Max Temperature 57 °F 40 °F 71 °F (2012)
Min Temperature 32 °F 23 °F -5 °F (1929)
Degree Days  
Heating Degree Days 20    
Moisture  
Dew Point 38 °F    
Average Humidity 87    
Maximum Humidity 97    
Minimum Humidity 60    
Precipitation  
Precipitation 0.00 in - - ()
Sea Level Pressure  
Sea Level Pressure 29.61 in    
Wind  
Wind Speed 2 mph (South)    
Max Wind Speed 10 mph    
Max Gust Speed -    
Averages and records for this station are not official NWS values.
T = Trace of Precipitation, MM = Missing Value Source: NWS Daily Summary

Daily Weather History Graph

Daily Weather History Graph

Search for Another Location

Airport or City:

Trip Planner

Search our weather history database for the weather conditions in past years. The results will help you decide how hot, cold, wet, or windy it might be!

Date:

Astronomy

Dec. 03, 2013 Rise Set
Actual Time 7:18 AM CST 4:49 PM CST
Civil Twilight 6:48 AM CST 5:19 PM CST
Nautical Twilight 6:15 AM CST 5:53 PM CST
Astronomical Twilight 5:42 AM CST 6:25 PM CST
Moon 7:48 AM CST (12/3) 5:53 PM CST (12/3)
Length of Visible Light 10h 31m
Length of Day
9h 31m
New Moon, 1% of the Moon is Illuminated
Dec 3
New Moon
Dec 9
First Quarter
Dec 17
Full
Dec 25
Last Quarter
Jan 1
New

Hourly Weather History & Observations

Time (CST) Temp. Windchill Dew Point Humidity Pressure Visibility Wind Dir Wind Speed Gust Speed Precip Events Conditions
12:52 AM 35.1 °F - 33.1 °F 92% 29.62 in - Calm Calm - N/A   Unknown
1:52 AM 34.0 °F - 32.0 °F 92% 29.62 in - Calm Calm - N/A   Unknown
2:52 AM 32.0 °F - 30.0 °F 92% 29.62 in - Calm Calm - N/A   Unknown
3:52 AM 32.0 °F - 28.9 °F 88% 29.63 in - Calm Calm - N/A   Unknown
4:52 AM 33.1 °F 30.0 °F 32.0 °F 96% 29.60 in - SE 3.5 mph - N/A   Unknown
5:52 AM 35.1 °F - 33.1 °F 92% 29.61 in - Calm Calm - N/A   Unknown
6:52 AM 37.0 °F 33.3 °F 36.0 °F 96% 29.60 in - SSE 4.6 mph - N/A   Unknown
7:52 AM 37.9 °F 32.7 °F 37.0 °F 97% 29.61 in - SSE 6.9 mph - N/A   Unknown
8:52 AM 39.9 °F 36.7 °F 39.0 °F 97% 29.62 in - South 4.6 mph - N/A   Unknown
9:52 AM 43.0 °F 40.3 °F 41.0 °F 93% 29.64 in - Variable 4.6 mph - N/A   Unknown
10:52 AM 45.0 °F 40.1 °F 43.0 °F 93% 29.60 in - SSE 9.2 mph - N/A   Unknown
11:52 AM 48.9 °F - 44.1 °F 83% 29.61 in - South 8.1 mph - N/A   Unknown
12:52 PM 53.1 °F - 45.0 °F 74% 29.58 in - South 10.4 mph - N/A   Unknown
1:52 PM 55.0 °F - 44.1 °F 67% 29.56 in - South 9.2 mph - N/A   Unknown
2:52 PM 57.9 °F - 44.1 °F 60% 29.55 in - South 4.6 mph - N/A   Unknown
3:52 PM 57.0 °F - 45.0 °F 64% 29.58 in - SW 3.5 mph - N/A   Unknown
4:52 PM 51.1 °F - 44.1 °F 77% 29.60 in - Calm Calm - N/A   Unknown
5:52 PM 42.1 °F - 39.0 °F 89% 29.61 in - Calm Calm - N/A   Unknown
6:52 PM 41.0 °F - 37.0 °F 86% 29.63 in - Calm Calm - N/A   Unknown
7:52 PM 39.9 °F - 37.9 °F 93% 29.62 in - Calm Calm - N/A   Unknown
8:52 PM 39.0 °F - 36.0 °F 89% 29.62 in - Calm Calm - N/A   Unknown
9:52 PM 37.0 °F 34.5 °F 36.0 °F 96% 29.63 in - NNW 3.5 mph - N/A   Unknown
10:52 PM 37.9 °F 35.5 °F 37.0 °F 97% 29.66 in - NNW 3.5 mph - N/A   Unknown
11:52 PM 39.9 °F 37.8 °F 37.0 °F 89% 29.64 in - NNW 3.5 mph - N/A   Unknown